Santuari del Far - Susqueda





Hora UTC 21:10
Temperatura 15.7 ºC
Humitat 78.0 %
Pressió 1012.6 hPa
Pluja 1.4 mm
Velocitat vent 1.6 km/h
Direcció vent N

Dades diàries 2020-08-03



Hora UTC (hivern +1h; estiu +2h)
Temperatura (ºC) Humitat (%) Pressió (hPa) Velocitat vent (km/h) Precipitació (mm)
Hora UTC Aire Humitat Pressió Vel. Dir. Vel. Max Dir. Intent. màx 5 min.
00:05 17.7 93.0 1010.5 3.2 N 3.2 0.0
00:10 17.6 93.0 1010.5 4.8 N 8.0 0.0
00:15 17.6 93.0 1010.5 0.0 N 6.4 0.0
00:20 17.6 93.0 1010.5 3.2 N 4.8 0.0
00:25 17.6 93.0 1010.3 1.6 N 6.4 0.0
00:30 17.5 93.0 1010.3 3.2 N 4.8 0.0
00:35 17.4 93.0 1010.3 1.6 N 3.2 0.0
00:40 17.4 93.0 1010.3 1.6 N 4.8 0.0
00:45 17.3 93.0 1010.3 3.2 N 4.8 0.0
00:50 17.3 93.0 1010.2 3.2 N 4.8 0.0
00:55 17.3 93.0 1010.2 3.2 N 6.4 0.0
01:00 17.2 93.0 1010.1 1.6 N 4.8 0.0
01:05 17.2 93.0 1010.0 0.0 N 4.8 0.0
01:10 17.1 93.0 1009.9 1.6 N 4.8 0.0
01:15 17.0 93.0 1009.9 1.6 N 3.2 0.0
01:20 16.9 93.0 1009.7 3.2 N 4.8 0.0
01:25 16.7 91.0 1009.5 1.6 N 6.4 0.0
01:30 16.6 90.0 1009.5 1.6 N 6.4 0.0
01:35 16.4 90.0 1009.3 1.6 N 8.0 0.0
01:40 16.3 88.0 1009.2 0.0 N 4.8 0.0
01:45 16.3 86.0 1009.2 0.0 N 4.8 0.0
01:50 16.3 85.0 1009.2 1.6 N 4.8 0.0
01:55 16.3 87.0 1009.2 0.0 N 4.8 0.0
02:00 16.4 88.0 1009.2 1.6 N 3.2 0.0
02:05 16.3 87.0 1009.2 3.2 N 3.2 0.0
02:10 16.3 86.0 1009.2 3.2 N 3.2 0.0
02:15 16.1 86.0 1009.2 3.2 N 4.8 0.0
02:20 16.0 87.0 1009.2 1.6 N 4.8 0.0
02:25 15.8 87.0 1009.3 4.8 N 6.4 0.0
02:30 15.7 86.0 1009.3 4.8 N 6.4 0.0
02:35 15.6 85.0 1009.2 1.6 N 6.4 0.0
02:40 15.5 85.0 1009.3 3.2 N 6.4 0.0
02:45 15.4 86.0 1009.6 3.2 N 4.8 0.0
02:50 15.3 86.0 1009.5 1.6 N 4.8 0.0
02:55 15.2 85.0 1009.7 1.6 N 4.8 0.0
03:00 15.1 85.0 1009.4 1.6 N 4.8 0.0
03:05 14.9 86.0 1009.3 4.8 N 6.4 0.2
03:10 14.7 86.0 1009.2 1.6 N 6.4 0.0
03:15 14.4 87.0 1009.1 1.6 N 4.8 0.4
03:20 14.2 88.0 1009.4 1.6 N 4.8 0.4
03:25 14.0 89.0 1009.5 0.0 N 4.8 0.2
03:30 13.8 90.0 1009.5 4.8 N 4.8 0.0
03:35 13.6 89.0 1009.3 4.8 N 8.0 0.0
03:40 13.4 90.0 1009.3 1.6 N 8.0 0.2
03:45 13.4 90.0 1009.7 0.0 N 6.4 0.0
03:50 13.4 90.0 1009.6 3.2 N 4.8 0.0
03:55 13.4 91.0 1009.6 1.6 N 4.8 0.0
04:00 13.3 91.0 1009.1 1.6 N 6.4 0.0
04:05 13.2 91.0 1008.9 3.2 N 8.0 0.0
04:10 13.1 92.0 1009.2 3.2 N 8.0 0.0
04:15 12.9 92.0 1009.5 1.6 N 6.4 0.0
04:20 12.9 92.0 1009.3 3.2 N 6.4 0.0
04:25 12.9 92.0 1009.2 4.8 N 6.4 0.0
04:30 13.1 92.0 1009.3 3.2 N 8.0 0.0
04:35 13.2 91.0 1009.6 4.8 N 8.0 0.0
04:40 13.3 90.0 1009.6 3.2 N 8.0 0.0
04:45 13.3 90.0 1009.7 3.2 N 6.4 0.0
04:50 13.2 90.0 1009.7 1.6 N 6.4 0.0
04:55 13.1 90.0 1009.5 3.2 N 6.4 0.0
05:00 12.9 91.0 1009.7 3.2 N 6.4 0.0
05:05 12.8 91.0 1009.6 3.2 N 6.4 0.0
05:10 12.8 91.0 1009.7 4.8 N 6.4 0.0
05:15 12.9 91.0 1009.7 1.6 N 4.8 0.0
05:20 13.0 90.0 1009.5 3.2 N 4.8 0.0
05:25 13.2 89.0 1009.4 4.8 N 6.4 0.0
05:30 13.4 88.0 1009.7 1.6 N 8.0 0.0
05:35 13.4 87.0 1009.9 0.0 N 4.8 0.0
05:40 13.4 89.0 1010.1 4.8 N 6.4 0.0
05:45 13.3 88.0 1010.1 1.6 N 6.4 0.0
05:50 13.3 87.0 1010.1 1.6 N 4.8 0.0
05:55 13.3 87.0 1009.9 1.6 N 4.8 0.0
06:00 13.3 87.0 1009.8 1.6 N 4.8 0.0
06:05 13.4 89.0 1009.9 1.6 N 4.8 0.0
06:10 13.3 89.0 1010.3 1.6 N 4.8 0.0
06:15 13.2 89.0 1010.3 1.6 N 6.4 0.0
06:20 13.2 89.0 1010.2 3.2 N 6.4 0.0
06:25 13.2 88.0 1010.1 3.2 N 4.8 0.0
06:30 13.2 87.0 1010.0 1.6 N 4.8 0.0
06:35 13.3 86.0 1010.2 1.6 N 6.4 0.0
06:40 13.4 85.0 1010.2 3.2 N 6.4 0.0
06:45 13.5 85.0 1010.0 1.6 N 4.8 0.0
06:50 13.6 84.0 1010.2 1.6 N 4.8 0.0
06:55 13.6 86.0 1010.1 3.2 N 4.8 0.0
07:00 13.4 85.0 1010.1 3.2 N 6.4 0.0
07:05 13.4 86.0 1010.3 3.2 N 6.4 0.0
07:10 13.5 85.0 1010.5 1.6 N 4.8 0.0
07:15 13.6 84.0 1010.4 1.6 N 4.8 0.0
07:20 13.8 83.0 1010.5 1.6 N 4.8 0.0
07:25 14.0 83.0 1010.7 1.6 N 3.2 0.0
07:30 14.3 82.0 1010.8 3.2 N 4.8 0.0
07:35 14.5 83.0 1010.7 0.0 N 4.8 0.0
07:40 14.8 81.0 1010.8 1.6 N 4.8 0.0
07:45 15.1 81.0 1010.8 3.2 N 3.2 0.0
07:50 15.3 80.0 1010.7 1.6 N 4.8 0.0
07:55 15.6 80.0 1010.7 0.0 N 4.8 0.0
08:00 15.8 77.0 1010.6 0.0 N 4.8 0.0
08:05 15.7 77.0 1010.6 1.6 N 4.8 0.0
08:10 15.4 78.0 1010.7 3.2 N 4.8 0.0
08:15 14.9 80.0 1010.7 0.0 N 3.2 0.0
08:20 14.7 82.0 1010.6 1.6 N 3.2 0.0
08:25 14.4 83.0 1010.7 1.6 N 6.4 0.0
08:30 14.3 85.0 1010.7 3.2 N 6.4 0.0
08:35 14.4 85.0 1010.7 1.6 N 4.8 0.0
08:40 14.4 86.0 1010.7 1.6 N 3.2 0.0
08:45 14.9 87.0 1010.8 1.6 N 3.2 0.0
08:50 15.4 87.0 1010.7 1.6 N 4.8 0.0
08:55 16.1 86.0 1011.0 3.2 N 6.4 0.0
09:00 16.6 83.0 1010.9 3.2 N 6.4 0.0
09:05 17.0 82.0 1010.7 3.2 N 4.8 0.0
09:10 17.3 81.0 1010.8 4.8 N 4.8 0.0
09:15 17.6 81.0 1010.8 1.6 N 4.8 0.0
09:20 17.8 77.0 1010.8 0.0 N 4.8 0.0
09:25 18.1 79.0 1010.8 4.8 N 4.8 0.0
09:30 18.2 77.0 1010.7 1.6 N 6.4 0.0
09:35 18.2 76.0 1011.0 1.6 N 6.4 0.0
09:40 18.3 71.0 1011.1 3.2 N 4.8 0.0
09:45 18.5 72.0 1011.1 1.6 N 6.4 0.0
09:50 18.5 72.0 1010.9 1.6 N 6.4 0.0
09:55 18.6 70.0 1011.0 4.8 N 4.8 0.0
10:00 18.7 69.0 1011.0 0.0 N 6.4 0.0
10:05 18.9 69.0 1011.0 1.6 N 6.4 0.0
10:10 19.3 67.0 1011.0 0.0 N 4.8 0.0
10:15 19.5 65.0 1011.2 3.2 N 4.8 0.0
10:20 19.8 66.0 1011.0 0.0 N 6.4 0.0
10:25 19.8 63.0 1011.1 0.0 N 6.4 0.0
10:30 19.9 61.0 1011.1 1.6 N 4.8 0.0
10:35 20.1 61.0 1011.1 3.2 N 4.8 0.0
10:40 20.3 60.0 1011.1 6.4 N 8.0 0.0
10:45 20.4 60.0 1011.2 0.0 N 6.4 0.0
10:50 20.4 64.0 1011.1 6.4 N 11.3 0.0
10:55 20.3 65.0 1011.1 4.8 N 11.3 0.0
11:00 20.6 67.0 1011.1 3.2 N 6.4 0.0
11:05 21.1 65.0 1011.1 3.2 N 6.4 0.0
11:10 20.8 60.0 1011.1 1.6 N 6.4 0.0
11:15 20.6 64.0 1011.1 1.6 N 6.4 0.0
11:20 20.6 66.0 1011.0 1.6 N 12.9 0.0
11:25 21.0 64.0 1011.2 3.2 N 12.9 0.0
11:30 21.4 61.0 1011.2 0.0 N 8.0 0.0
11:35 21.0 60.0 1011.1 3.2 N 9.7 0.0
11:40 20.6 62.0 1011.2 0.0 N 9.7 0.0
11:45 20.4 61.0 1011.2 0.0 N 6.4 0.0
11:50 20.1 64.0 1011.3 3.2 N 6.4 0.0
11:55 19.6 68.0 1011.2 3.2 N 6.4 0.0
12:00 19.6 68.0 1011.2 3.2 N 6.4 0.0
12:05 19.9 68.0 1011.1 3.2 N 9.7 0.0
12:10 20.5 65.0 1011.1 1.6 N 12.9 0.0
12:15 21.1 58.0 1011.1 1.6 N 12.9 0.0
12:20 21.4 61.0 1010.8 1.6 N 4.8 0.0
12:25 21.5 61.0 1010.8 1.6 N 8.0 0.0
12:30 21.7 60.0 1010.7 3.2 N 16.1 0.0
12:35 21.7 57.0 1010.7 3.2 N 16.1 0.0
12:40 21.4 59.0 1010.7 4.8 N 16.1 0.0
12:45 21.2 63.0 1010.7 4.8 N 16.1 0.0
12:50 21.7 61.0 1010.7 3.2 N 4.8 0.0
12:55 22.1 58.0 1010.7 1.6 N 4.8 0.0
13:00 22.1 59.0 1010.6 3.2 N 8.0 0.0
13:05 21.8 60.0 1010.4 8.0 N 9.7 0.0
13:10 21.3 62.0 1010.5 1.6 N 11.3 0.0
13:15 20.9 63.0 1010.5 1.6 N 12.9 0.0
13:20 20.4 64.0 1010.5 3.2 N 12.9 0.0
13:25 19.8 65.0 1010.6 0.0 N 11.3 0.0
13:30 19.7 66.0 1010.7 3.2 N 11.3 0.0
13:35 19.6 66.0 1010.5 9.7 N 11.3 0.0
13:40 19.4 68.0 1010.4 4.8 N 11.3 0.0
13:45 19.3 67.0 1010.5 1.6 N 9.7 0.0
13:50 19.3 67.0 1010.5 4.8 N 6.4 0.0
13:55 19.0 68.0 1010.4 3.2 N 8.0 0.0
14:00 18.8 69.0 1010.3 3.2 N 8.0 0.0
14:05 18.8 68.0 1010.4 3.2 N 8.0 0.0
14:10 18.6 69.0 1010.3 1.6 N 8.0 0.0
14:15 18.6 69.0 1010.4 6.4 N 8.0 0.0
14:20 18.6 68.0 1010.2 4.8 N 9.7 0.0
14:25 18.5 69.0 1010.3 1.6 N 9.7 0.0
14:30 18.4 70.0 1010.3 3.2 N 6.4 0.0
14:35 18.2 72.0 1010.3 1.6 N 11.3 0.0
14:40 18.1 73.0 1010.2 8.0 N 11.3 0.0
14:45 17.9 74.0 1010.1 4.8 N 11.3 0.0
14:50 17.9 75.0 1010.2 9.7 N 14.5 0.0
14:55 17.8 76.0 1010.2 1.6 N 14.5 0.0
15:00 17.8 77.0 1010.1 6.4 N 9.7 0.0
15:05 17.8 77.0 1010.1 9.7 N 9.7 0.0
15:10 17.8 77.0 1010.1 4.8 N 16.1 0.0
15:15 17.7 77.0 1010.1 8.0 N 12.9 0.0
15:20 17.6 78.0 1010.1 6.4 N 12.9 0.0
15:25 17.5 79.0 1010.1 1.6 N 12.9 0.0
15:30 17.5 80.0 1010.2 1.6 N 11.3 0.0
15:35 17.6 80.0 1010.2 1.6 N 11.3 0.0
15:40 17.5 79.0 1010.2 1.6 N 6.4 0.0
15:45 17.5 79.0 1010.2 1.6 N 6.4 0.0
15:50 17.4 79.0 1010.0 1.6 N 11.3 0.0
15:55 17.2 78.0 1010.0 1.6 N 14.5 0.0
16:00 17.3 79.0 1010.1 6.4 N 14.5 0.0
16:05 17.3 77.0 1009.9 1.6 N 14.5 0.0
16:10 17.2 79.0 1010.0 6.4 N 12.9 0.0
16:15 17.1 79.0 1010.2 9.7 N 11.3 0.0
16:20 17.0 80.0 1010.5 1.6 N 11.3 0.0
16:25 16.9 79.0 1010.3 3.2 N 11.3 0.0
16:30 17.1 79.0 1010.4 3.2 N 9.7 0.0
16:35 17.3 80.0 1010.3 4.8 N 11.3 0.0
16:40 17.4 78.0 1010.3 1.6 N 12.9 0.0
16:45 17.3 77.0 1010.3 4.8 N 14.5 0.0
16:50 17.1 76.0 1010.3 3.2 N 14.5 0.0
16:55 17.2 75.0 1010.5 9.7 N 11.3 0.0
17:00 17.2 76.0 1010.5 8.0 N 17.7 0.0
17:05 17.3 75.0 1010.4 6.4 N 17.7 0.0
17:10 17.6 76.0 1010.3 1.6 N 11.3 0.0
17:15 17.8 75.0 1010.3 1.6 N 9.7 0.0
17:20 17.8 74.0 1010.4 0.0 N 9.7 0.0
17:25 17.8 76.0 1010.5 3.2 N 8.0 0.0
17:30 17.9 74.0 1010.5 4.8 N 8.0 0.0
17:35 17.7 73.0 1010.6 3.2 N 8.0 0.0
17:40 17.5 74.0 1010.6 0.0 N 4.8 0.0
17:45 17.3 76.0 1010.5 1.6 N 8.0 0.0
17:50 17.2 77.0 1010.4 1.6 N 8.0 0.0
17:55 17.1 76.0 1010.5 1.6 N 9.7 0.0
18:00 16.9 77.0 1010.4 1.6 N 9.7 0.0
18:05 16.8 77.0 1010.5 3.2 N 6.4 0.0
18:10 16.7 77.0 1010.5 1.6 N 6.4 0.0
18:15 16.7 79.0 1010.6 4.8 N 6.4 0.0
18:20 16.7 78.0 1010.6 1.6 N 8.0 0.0
18:25 16.6 79.0 1010.6 0.0 N 8.0 0.0
18:30 16.6 80.0 1010.6 1.6 N 6.4 0.0
18:35 16.6 81.0 1010.9 3.2 N 4.8 0.0
18:40 16.6 84.0 1010.8 0.0 N 4.8 0.0
18:45 16.4 80.0 1010.9 1.6 N 4.8 0.0
18:50 16.3 80.0 1010.8 1.6 N 4.8 0.0
18:55 16.3 81.0 1010.9 1.6 N 3.2 0.0
19:00 16.2 80.0 1010.9 0.0 N 3.2 0.0
19:05 16.2 80.0 1011.0 0.0 N 3.2 0.0
19:10 16.1 80.0 1010.9 0.0 N 1.6 0.0
19:15 16.1 79.0 1011.0 1.6 N 4.8 0.0
19:20 16.1 78.0 1011.1 1.6 N 4.8 0.0
19:25 16.2 76.0 1011.0 3.2 N 4.8 0.0
19:30 16.2 72.0 1011.0 3.2 N 8.0 0.0
19:35 16.3 72.0 1011.2 0.0 N 8.0 0.0
19:40 16.3 72.0 1011.3 3.2 N 8.0 0.0
19:45 16.3 76.0 1011.2 3.2 N 6.4 0.0
19:50 16.2 76.0 1011.7 3.2 N 6.4 0.0
19:55 16.2 77.0 1011.4 1.6 N 4.8 0.0
20:00 16.1 78.0 1011.5 3.2 N 3.2 0.0
20:05 15.9 80.0 1012.0 0.0 N 3.2 0.0
20:10 15.8 80.0 1012.1 0.0 N 4.8 0.0
20:15 15.8 80.0 1012.3 1.6 N 4.8 0.0
20:20 15.8 79.0 1012.2 0.0 N 4.8 0.0
20:25 15.9 80.0 1012.1 1.6 N 6.4 0.0
20:30 15.9 80.0 1012.4 0.0 N 6.4 0.0
20:35 15.8 81.0 1012.5 0.0 N 3.2 0.0
20:40 15.7 82.0 1012.4 1.6 N 3.2 0.0
20:45 15.7 81.0 1012.5 0.0 N 6.4 0.0
20:50 15.8 80.0 1012.5 3.2 N 6.4 0.0
20:55 15.7 79.0 1012.4 3.2 N 6.4 0.0
21:00 15.7 77.0 1012.4 1.6 N 6.4 0.0
21:05 15.7 78.0 1012.6 0.0 N 6.4 0.0
21:10 15.7 78.0 1012.6 1.6 N 3.2 0.0
Màxima 22.2 93.0 1012.6 9.7 N 17.7 0.4
Mínima 12.8 57.0 1008.9
Total 1.4